Location: Star Dogged Moon Observatory
(29.7756°N, 82.0783°W)
Time: 23:27:35
(UTC-04:00)

ARGOS - Visible Passes

Search period start: 27 June 2017 00:00
Search period end: 07 July 2017 00:00
Orbit: 820 x 835 km, 98.6° (Epoch: 26 June)

Date Brightness Start Highest point End Pass type
(mag) Time Alt. Az. Time Alt. Az. Time Alt. Az.
27 Jun 5.1 21:24:14 10° E 21:26:44 13° ENE 21:29:14 10° NE visible
27 Jun 3.4 23:05:26 52° SW 23:06:23 61° WSW 23:11:44 10° NNW visible
28 Jun 3.0 22:46:39 57° SSE 22:47:50 87° ENE 22:53:16 10° NNW visible
29 Jun 3.3 22:27:51 43° SE 22:29:19 57° ENE 22:34:37 10° N visible
30 Jun 5.5 00:09:22 13° W 00:09:48 13° W 00:12:17 10° WNW visible
30 Jun 3.9 22:09:04 29° ESE 22:10:53 37° ENE 22:15:47 10° N visible
30 Jun 5.0 23:50:36 21° WSW 23:51:06 21° W 23:55:07 10° NW visible
01 Jul 4.4 21:50:17 19° ESE 21:52:27 24° ENE 21:56:43 10° NNE visible
01 Jul 4.4 23:31:48 31° WSW 23:32:27 32° W 23:37:16 10° NW visible
02 Jul 4.9 21:31:30 12° E 21:34:05 16° ENE 21:37:17 10° NNE visible
02 Jul 3.7 23:13:02 46° SW 23:13:51 50° W 23:19:06 10° NNW visible
03 Jul 3.1 22:54:14 59° S 22:55:17 79° WSW 23:00:42 10° NNW visible
04 Jul 3.1 22:35:28 50° SE 22:36:46 68° ENE 22:42:07 10° N visible
05 Jul 5.7 00:16:59 10° W 00:17:20 10° W 00:18:20 10° W visible
05 Jul 3.6 22:16:41 35° ESE 22:18:17 44° ENE 22:23:23 10° N visible
05 Jul 5.2 23:58:12 17° W 23:58:37 17° W 00:02:07 10° NW visible
06 Jul 4.2 21:57:54 23° ESE 21:59:51 29° ENE 22:04:25 10° NNE visible
06 Jul 4.6 23:39:25 27° WSW 23:39:57 27° W 23:44:28 10° NW visible
